Time,TemperatureF,DewpointF,PressureIn,WindDirection,WindDirectionDegrees,WindSpeedMPH,WindSpeedGustMPH,Humidity,HourlyPrecipIn,Conditions,Clouds,dailyrainin,SoftwareType,DateUTC
2013-02-09 00:00:00,14.2,2.4,30.32,SE,135,0.0,0.0,59,0.00,,,0.00,WUHU21623XXSP,2013-02-09 06:00:00,
2013-02-09 00:05:00,14.2,2.4,30.33,SE,135,0.0,0.0,59,0.00,,,0.00,WUHU21623XXSP,2013-02-09 06:05:00,
2013-02-09 00:10:00,14.5,3.1,30.33,ESE,112,0.0,0.0,60,0.00,,,0.00,WUHU21623XXSP,2013-02-09 06:10:00,
2013-02-09 00:15:00,14.9,3.8,30.34,SE,135,0.0,0.0,61,0.00,,,0.00,WUHU21623XXSP,2013-02-09 06:15:00,
2013-02-09 00:20:00,15.3,4.5,30.34,SE,135,0.0,0.0,62,0.00,,,0.00,WUHU21623XXSP,2013-02-09 06:20:00,
2013-02-09 00:25:00,15.4,4.6,30.34,SSE,157,0.0,0.0,62,0.00,,,0.00,WUHU21623XXSP,2013-02-09 06:25:00,
2013-02-09 00:30:00,16.0,5.5,30.35,SE,135,0.0,0.0,63,0.00,,,0.00,WUHU21623XXSP,2013-02-09 06:30:00,
2013-02-09 00:35:00,16.2,6.0,30.34,SE,135,0.0,0.0,64,0.00,,,0.00,WUHU21623XXSP,2013-02-09 06:35:00,
2013-02-09 00:40:00,16.3,6.2,30.34,ESE,112,0.0,0.0,64,0.00,,,0.00,WUHU21623XXSP,2013-02-09 06:40:00,
2013-02-09 00:45:00,16.5,6.7,30.34,SE,135,0.0,0.0,65,0.00,,,0.00,WUHU21623XXSP,2013-02-09 06:45:00,
2013-02-09 00:50:00,16.5,6.7,30.34,SE,135,0.0,0.0,65,0.00,,,0.00,WUHU21623XXSP,2013-02-09 06:50:00,
2013-02-09 00:55:00,16.7,6.9,30.34,SSE,157,0.0,0.0,65,0.00,,,0.00,WUHU21623XXSP,2013-02-09 06:55:00,
2013-02-09 01:00:00,16.9,7.1,30.35,SE,135,0.0,0.0,65,0.00,,,0.00,WUHU21623XXSP,2013-02-09 07:00:00,
2013-02-09 01:05:00,17.1,7.6,30.34,ESE,112,0.0,0.0,66,0.00,,,0.00,WUHU21623XXSP,2013-02-09 07:05:00,
2013-02-09 01:10:00,16.9,7.4,30.35,SE,135,0.0,0.0,66,0.00,,,0.00,WUHU21623XXSP,2013-02-09 07:10:00,
2013-02-09 01:15:00,17.1,7.6,30.34,SE,135,0.0,0.0,66,0.00,,,0.00,WUHU21623XXSP,2013-02-09 07:15:00,
2013-02-09 01:20:00,17.1,7.6,30.34,ESE,112,0.0,0.0,66,0.00,,,0.00,WUHU21623XXSP,2013-02-09 07:20:00,
2013-02-09 01:25:00,17.1,7.6,30.34,ESE,112,0.0,0.0,66,0.00,,,0.00,WUHU21623XXSP,2013-02-09 07:25:00,
2013-02-09 01:30:00,17.1,7.6,30.34,SE,135,0.0,0.0,66,0.00,,,0.00,WUHU21623XXSP,2013-02-09 07:30:00,
2013-02-09 01:35:00,17.2,7.8,30.34,SE,135,0.0,0.0,66,0.00,,,0.00,WUHU21623XXSP,2013-02-09 07:35:00,
2013-02-09 01:40:00,17.2,8.1,30.34,ESE,112,0.0,0.0,67,0.00,,,0.00,WUHU21623XXSP,2013-02-09 07:40:00,
2013-02-09 01:45:00,17.4,8.3,30.34,SE,135,0.0,0.0,67,0.00,,,0.00,WUHU21623XXSP,2013-02-09 07:45:00,
2013-02-09 01:50:00,17.4,8.3,30.34,SE,135,0.0,0.0,67,0.00,,,0.00,WUHU21623XXSP,2013-02-09 07:50:00,
2013-02-09 01:55:00,17.6,8.5,30.33,SE,135,0.0,0.0,67,0.00,,,0.00,WUHU21623XXSP,2013-02-09 07:55:00,
2013-02-09 02:00:00,17.8,8.6,30.33,East,90,0.0,0.0,67,0.00,,,0.00,WUHU21623XXSP,2013-02-09 08:00:00,
2013-02-09 02:05:00,17.8,8.6,30.33,SE,135,0.0,0.0,67,0.00,,,0.00,WUHU21623XXSP,2013-02-09 08:05:00,
2013-02-09 02:10:00,17.8,9.0,30.33,SE,135,0.0,0.0,68,0.00,,,0.00,WUHU21623XXSP,2013-02-09 08:10:00,
2013-02-09 02:15:00,18.0,9.1,30.33,SE,135,0.0,0.0,68,0.00,,,0.00,WUHU21623XXSP,2013-02-09 08:15:00,
2013-02-09 02:20:00,18.0,9.1,30.33,ESE,112,0.0,0.0,68,0.00,,,0.00,WUHU21623XXSP,2013-02-09 08:20:00,
2013-02-09 02:25:00,18.1,9.3,30.33,SE,135,0.0,0.0,68,0.00,,,0.00,WUHU21623XXSP,2013-02-09 08:25:00,
2013-02-09 02:30:00,18.3,9.5,30.33,SE,135,0.0,0.0,68,0.00,,,0.00,WUHU21623XXSP,2013-02-09 08:30:00,
2013-02-09 02:35:00,18.5,10.0,30.33,SE,135,0.0,0.0,69,0.00,,,0.00,WUHU21623XXSP,2013-02-09 08:35:00,
2013-02-09 02:40:00,18.7,10.1,30.34,SE,135,0.0,0.0,69,0.00,,,0.00,WUHU21623XXSP,2013-02-09 08:40:00,
2013-02-09 02:45:00,18.9,10.3,30.33,ESE,112,0.0,0.0,69,0.00,,,0.00,WUHU21623XXSP,2013-02-09 08:45:00,
2013-02-09 02:50:00,18.9,10.3,30.32,SE,135,0.0,0.0,69,0.00,,,0.00,WUHU21623XXSP,2013-02-09 08:50:00,
2013-02-09 02:55:00,19.0,10.5,30.32,SSE,157,0.0,0.0,69,0.00,,,0.00,WUHU21623XXSP,2013-02-09 08:55:00,
2013-02-09 03:00:00,19.2,11.0,30.33,SE,135,0.0,0.0,70,0.00,,,0.00,WUHU21623XXSP,2013-02-09 09:00:00,
2013-02-09 03:05:00,19.6,11.3,30.33,SSE,157,0.0,0.0,70,0.00,,,0.00,WUHU21623XXSP,2013-02-09 09:05:00,
2013-02-09 03:10:00,19.6,11.3,30.33,SE,135,0.0,0.0,70,0.00,,,0.00,WUHU21623XXSP,2013-02-09 09:10:00,
2013-02-09 03:15:00,19.6,11.3,30.33,ESE,112,0.0,0.0,70,0.00,,,0.00,WUHU21623XXSP,2013-02-09 09:15:00,
2013-02-09 03:20:00,19.8,11.5,30.32,SE,135,0.0,0.0,70,0.00,,,0.00,WUHU21623XXSP,2013-02-09 09:20:00,
2013-02-09 03:25:00,19.9,11.7,30.32,SSE,157,0.0,0.0,70,0.00,,,0.00,WUHU21623XXSP,2013-02-09 09:25:00,
2013-02-09 03:30:00,19.9,11.7,30.32,SE,135,0.0,0.0,70,0.00,,,0.00,WUHU21623XXSP,2013-02-09 09:30:00,
2013-02-09 03:35:00,19.9,11.7,30.32,SE,135,0.0,0.0,70,0.00,,,0.00,WUHU21623XXSP,2013-02-09 09:35:00,
2013-02-09 03:40:00,20.1,11.8,30.32,SSE,157,0.0,0.0,70,0.00,,,0.00,WUHU21623XXSP,2013-02-09 09:40:00,
2013-02-09 03:45:00,20.3,12.0,30.32,South,180,0.0,0.0,70,0.00,,,0.00,WUHU21623XXSP,2013-02-09 09:45:00,
2013-02-09 03:50:00,20.3,12.0,30.32,SE,135,0.0,0.0,70,0.00,,,0.00,WUHU21623XXSP,2013-02-09 09:50:00,
2013-02-09 03:55:00,20.3,12.0,30.31,SSE,157,0.0,0.0,70,0.00,,,0.00,WUHU21623XXSP,2013-02-09 09:55:00,
2013-02-09 04:00:00,20.5,12.2,30.31,ESE,112,0.0,0.0,70,0.00,,,0.00,WUHU21623XXSP,2013-02-09 10:00:00,
2013-02-09 04:05:00,20.7,12.4,30.31,South,180,0.0,0.0,70,0.00,,,0.00,WUHU21623XXSP,2013-02-09 10:05:00,
2013-02-09 04:10:00,20.7,12.7,30.31,SSE,157,0.0,0.0,71,0.00,,,0.00,WUHU21623XXSP,2013-02-09 10:10:00,
2013-02-09 04:15:00,20.7,12.7,30.32,SSE,157,0.0,0.0,71,0.00,,,0.00,WUHU21623XXSP,2013-02-09 10:15:00,
2013-02-09 04:20:00,20.8,12.9,30.32,SSE,157,0.0,0.0,71,0.00,,,0.00,WUHU21623XXSP,2013-02-09 10:20:00,
2013-02-09 04:25:00,20.8,12.9,30.32,South,180,0.0,0.0,71,0.00,,,0.00,WUHU21623XXSP,2013-02-09 10:25:00,
2013-02-09 04:30:00,21.0,13.0,30.32,SE,135,0.0,0.0,71,0.00,,,0.00,WUHU21623XXSP,2013-02-09 10:30:00,
2013-02-09 04:35:00,21.0,13.0,30.32,South,180,0.0,0.0,71,0.00,,,0.00,WUHU21623XXSP,2013-02-09 10:35:00,
2013-02-09 04:40:00,21.4,13.4,30.32,SE,135,0.0,0.0,71,0.00,,,0.00,WUHU21623XXSP,2013-02-09 10:40:00,
2013-02-09 04:45:00,21.4,13.4,30.31,South,180,0.0,0.0,71,0.00,,,0.00,WUHU21623XXSP,2013-02-09 10:45:00,
2013-02-09 04:50:00,21.4,13.4,30.31,SSE,157,0.0,0.0,71,0.00,,,0.00,WUHU21623XXSP,2013-02-09 10:50:00,
2013-02-09 04:55:00,21.4,13.4,30.32,South,180,0.0,0.0,71,0.00,,,0.00,WUHU21623XXSP,2013-02-09 10:55:00,
2013-02-09 05:00:00,21.6,13.6,30.31,SSE,157,0.0,0.0,71,0.00,,,0.00,WUHU21623XXSP,2013-02-09 11:00:00,
2013-02-09 05:05:00,21.6,13.6,30.31,SSE,157,0.0,0.0,71,0.00,,,0.00,WUHU21623XXSP,2013-02-09 11:05:00,
2013-02-09 05:10:00,21.6,13.6,30.32,SSW,202,0.0,0.0,71,0.00,,,0.00,WUHU21623XXSP,2013-02-09 11:10:00,
2013-02-09 05:15:00,21.6,13.6,30.32,SSE,157,0.0,0.0,71,0.00,,,0.00,WUHU21623XXSP,2013-02-09 11:15:00,
2013-02-09 05:20:00,21.7,13.8,30.31,SE,135,0.0,0.0,71,0.00,,,0.00,WUHU21623XXSP,2013-02-09 11:20:00,
2013-02-09 05:25:00,21.7,13.8,30.31,East,90,0.0,0.0,71,0.00,,,0.00,WUHU21623XXSP,2013-02-09 11:25:00,
2013-02-09 05:30:00,21.9,13.9,30.31,SE,135,0.0,0.0,71,0.00,,,0.00,WUHU21623XXSP,2013-02-09 11:30:00,
2013-02-09 05:35:00,21.9,13.9,30.31,SE,135,0.0,0.0,71,0.00,,,0.00,WUHU21623XXSP,2013-02-09 11:35:00,
2013-02-09 05:40:00,21.9,13.9,30.30,South,180,0.0,0.0,71,0.00,,,0.00,WUHU21623XXSP,2013-02-09 11:40:00,
2013-02-09 05:45:00,21.9,13.9,30.30,SSE,157,0.0,0.0,71,0.00,,,0.00,WUHU21623XXSP,2013-02-09 11:45:00,
2013-02-09 05:50:00,21.9,13.9,30.30,SSE,157,0.0,0.0,71,0.00,,,0.00,WUHU21623XXSP,2013-02-09 11:50:00,
2013-02-09 05:55:00,21.9,13.9,30.30,SSE,157,0.0,0.0,71,0.00,,,0.00,WUHU21623XXSP,2013-02-09 11:55:00,
2013-02-09 06:00:00,22.1,14.1,30.30,SSE,157,0.0,0.0,71,0.00,,,0.00,WUHU21623XXSP,2013-02-09 12:00:00,
2013-02-09 06:05:00,22.1,14.4,30.31,SE,135,0.0,0.0,72,0.00,,,0.00,WUHU21623XXSP,2013-02-09 12:05:00,
2013-02-09 06:10:00,22.3,14.6,30.31,SSE,157,0.0,0.0,72,0.00,,,0.00,WUHU21623XXSP,2013-02-09 12:10:00,
2013-02-09 06:15:00,22.1,14.1,30.31,South,180,0.0,0.0,71,0.00,,,0.00,WUHU21623XXSP,2013-02-09 12:15:00,
2013-02-09 06:20:00,22.5,14.8,30.31,South,180,0.0,0.0,72,0.00,,,0.00,WUHU21623XXSP,2013-02-09 12:20:00,
2013-02-09 06:25:00,22.5,14.8,30.31,SE,135,0.0,0.0,72,0.00,,,0.00,WUHU21623XXSP,2013-02-09 12:25:00,
2013-02-09 06:30:00,22.3,14.3,30.31,SSE,157,0.0,0.0,71,0.00,,,0.00,WUHU21623XXSP,2013-02-09 12:30:00,
2013-02-09 06:35:00,22.5,14.5,30.31,SSE,157,0.0,0.0,71,0.00,,,0.00,WUHU21623XXSP,2013-02-09 12:35:00,
2013-02-09 06:40:00,22.5,14.5,30.31,South,180,0.0,0.0,71,0.00,,,0.00,WUHU21623XXSP,2013-02-09 12:40:00,
2013-02-09 06:45:00,22.5,14.5,30.31,South,180,0.0,0.0,71,0.00,,,0.00,WUHU21623XXSP,2013-02-09 12:45:00,
2013-02-09 06:50:00,22.5,14.5,30.31,SSE,157,0.0,0.0,71,0.00,,,0.00,WUHU21623XXSP,2013-02-09 12:50:00,
2013-02-09 06:55:00,22.5,14.5,30.31,SSE,157,0.0,0.0,71,0.00,,,0.00,WUHU21623XXSP,2013-02-09 12:55:00,
2013-02-09 07:00:00,22.5,14.5,30.31,SSE,157,0.0,0.0,71,0.00,,,0.00,WUHU21623XXSP,2013-02-09 13:00:00,
2013-02-09 07:05:00,22.6,14.7,30.31,SSE,157,0.0,0.0,71,0.00,,,0.00,WUHU21623XXSP,2013-02-09 13:05:00,
2013-02-09 07:10:00,22.6,14.7,30.30,SE,135,0.0,0.0,71,0.00,,,0.00,WUHU21623XXSP,2013-02-09 13:10:00,
2013-02-09 07:15:00,22.6,14.7,30.31,ESE,112,0.0,0.0,71,0.00,,,0.00,WUHU21623XXSP,2013-02-09 13:15:00,
2013-02-09 07:20:00,22.8,14.8,30.31,South,180,0.0,0.0,71,0.00,,,0.00,WUHU21623XXSP,2013-02-09 13:20:00,
2013-02-09 07:25:00,22.8,14.8,30.31,South,180,0.0,0.0,71,0.00,,,0.00,WUHU21623XXSP,2013-02-09 13:25:00,
2013-02-09 07:30:00,23.0,15.0,30.30,SE,135,0.0,0.0,71,0.00,,,0.00,WUHU21623XXSP,2013-02-09 13:30:00,
2013-02-09 07:35:00,23.2,15.2,30.30,South,180,0.0,0.0,71,0.00,,,0.00,WUHU21623XXSP,2013-02-09 13:35:00,
2013-02-09 07:40:00,23.2,15.2,30.31,SSW,202,0.0,0.0,71,0.00,,,0.00,WUHU21623XXSP,2013-02-09 13:40:00,
2013-02-09 07:45:00,23.2,15.2,30.30,South,180,0.0,0.0,71,0.00,,,0.00,WUHU21623XXSP,2013-02-09 13:45:00,
2013-02-09 07:50:00,23.2,15.2,30.30,SW,225,0.0,0.0,71,0.00,,,0.00,WUHU21623XXSP,2013-02-09 13:50:00,
2013-02-09 07:55:00,23.4,15.3,30.31,SE,135,0.0,0.0,71,0.00,,,0.00,WUHU21623XXSP,2013-02-09 13:55:00,
2013-02-09 08:00:00,23.5,15.5,30.30,SSW,202,0.0,0.0,71,0.00,,,0.00,WUHU21623XXSP,2013-02-09 14:00:00,
2013-02-09 08:05:00,23.5,15.5,30.30,SSE,157,0.0,0.0,71,0.00,,,0.00,WUHU21623XXSP,2013-02-09 14:05:00,
2013-02-09 08:10:00,23.7,15.7,30.30,SE,135,0.0,0.0,71,0.00,,,0.00,WUHU21623XXSP,2013-02-09 14:10:00,
2013-02-09 08:15:00,23.7,15.7,30.30,SE,135,0.0,0.0,71,0.00,,,0.00,WUHU21623XXSP,2013-02-09 14:15:00,
2013-02-09 08:20:00,23.9,15.8,30.30,South,180,0.0,0.0,71,0.00,,,0.00,WUHU21623XXSP,2013-02-09 14:20:00,
2013-02-09 08:25:00,23.9,15.8,30.30,SSE,157,0.0,0.0,71,0.00,,,0.00,WUHU21623XXSP,2013-02-09 14:25:00,
2013-02-09 08:30:00,24.1,16.0,30.30,SE,135,0.0,0.0,71,0.00,,,0.00,WUHU21623XXSP,2013-02-09 14:30:00,
2013-02-09 08:35:00,24.3,15.9,30.30,SSE,157,0.0,0.0,70,0.00,,,0.00,WUHU21623XXSP,2013-02-09 14:35:00,
2013-02-09 08:40:00,24.4,16.0,30.30,South,180,0.0,0.0,70,0.00,,,0.00,WUHU21623XXSP,2013-02-09 14:40:00,
2013-02-09 08:45:00,24.6,16.2,30.30,SSW,202,0.0,0.0,70,0.00,,,0.00,WUHU21623XXSP,2013-02-09 14:45:00,
2013-02-09 08:50:00,24.6,16.2,30.29,SSE,157,0.0,0.0,70,0.00,,,0.00,WUHU21623XXSP,2013-02-09 14:50:00,
2013-02-09 08:55:00,25.0,16.5,30.28,SSW,202,0.0,0.0,70,0.00,,,0.00,WUHU21623XXSP,2013-02-09 14:55:00,
2013-02-09 09:00:00,25.0,16.2,30.28,SSE,157,0.0,0.0,69,0.00,,,0.00,WUHU21623XXSP,2013-02-09 15:00:00,
2013-02-09 09:05:00,25.2,16.3,30.28,SE,135,0.0,0.0,69,0.00,,,0.00,WUHU21623XXSP,2013-02-09 15:05:00,
2013-02-09 09:10:00,25.3,16.2,30.28,SE,135,0.0,0.0,68,0.00,,,0.00,WUHU21623XXSP,2013-02-09 15:10:00,
2013-02-09 09:15:00,25.5,16.4,30.28,South,180,0.0,0.0,68,0.00,,,0.00,WUHU21623XXSP,2013-02-09 15:15:00,
2013-02-09 09:20:00,25.7,16.5,30.28,SSE,157,0.0,0.0,68,0.00,,,0.00,WUHU21623XXSP,2013-02-09 15:20:00,
2013-02-09 09:25:00,25.7,16.5,30.28,SSE,157,0.0,0.0,68,0.00,,,0.00,WUHU21623XXSP,2013-02-09 15:25:00,
2013-02-09 09:30:00,26.1,16.5,30.28,SSE,157,0.0,0.0,67,0.00,,,0.00,WUHU21623XXSP,2013-02-09 15:30:00,
2013-02-09 09:35:00,26.2,16.7,30.28,SSW,202,0.0,0.0,67,0.00,,,0.00,WUHU21623XXSP,2013-02-09 15:35:00,
2013-02-09 09:40:00,26.4,16.9,30.28,SE,135,0.0,0.0,67,0.00,,,0.00,WUHU21623XXSP,2013-02-09 15:40:00,
2013-02-09 09:45:00,26.8,17.2,30.28,SE,135,0.0,0.0,67,0.00,,,0.00,WUHU21623XXSP,2013-02-09 15:45:00,
2013-02-09 09:50:00,26.8,17.2,30.27,SSE,157,0.0,0.0,67,0.00,,,0.00,WUHU21623XXSP,2013-02-09 15:50:00,
2013-02-09 09:55:00,26.8,16.9,30.28,SE,135,0.0,0.0,66,0.00,,,0.00,WUHU21623XXSP,2013-02-09 15:55:00,
2013-02-09 10:00:00,27.0,17.1,30.27,SE,135,0.0,0.0,66,0.00,,,0.00,WUHU21623XXSP,2013-02-09 16:00:00,
2013-02-09 10:05:00,27.3,17.4,30.27,SE,135,0.0,0.0,66,0.00,,,0.00,WUHU21623XXSP,2013-02-09 16:05:00,
2013-02-09 10:10:00,27.5,17.6,30.27,SE,135,0.0,0.0,66,0.00,,,0.00,WUHU21623XXSP,2013-02-09 16:10:00,
2013-02-09 10:15:00,27.7,17.4,30.27,SSW,202,0.0,0.0,65,0.00,,,0.00,WUHU21623XXSP,2013-02-09 16:15:00,
2013-02-09 10:20:00,28.0,17.8,30.27,South,180,0.0,0.0,65,0.00,,,0.00,WUHU21623XXSP,2013-02-09 16:20:00,
2013-02-09 10:25:00,28.0,17.8,30.26,SSE,157,0.0,0.0,65,0.00,,,0.00,WUHU21623XXSP,2013-02-09 16:25:00,
2013-02-09 10:30:00,28.2,18.0,30.27,SSE,157,0.0,0.0,65,0.00,,,0.00,WUHU21623XXSP,2013-02-09 16:30:00,
2013-02-09 10:35:00,28.6,18.3,30.26,SSE,157,0.0,0.0,65,0.00,,,0.00,WUHU21623XXSP,2013-02-09 16:35:00,
2013-02-09 10:40:00,28.6,17.9,30.26,South,180,0.0,0.0,64,0.00,,,0.00,WUHU21623XXSP,2013-02-09 16:40:00,
2013-02-09 10:45:00,28.6,17.9,30.26,SE,135,0.0,0.0,64,0.00,,,0.00,WUHU21623XXSP,2013-02-09 16:45:00,
2013-02-09 10:50:00,28.6,17.6,30.25,SSE,157,0.0,0.0,63,0.00,,,0.00,WUHU21623XXSP,2013-02-09 16:50:00,
2013-02-09 10:55:00,28.8,17.7,30.25,SE,135,0.0,0.0,63,0.00,,,0.00,WUHU21623XXSP,2013-02-09 16:55:00,
2013-02-09 11:00:00,28.6,17.6,30.24,SSE,157,0.0,0.0,63,0.00,,,0.00,WUHU21623XXSP,2013-02-09 17:00:00,
2013-02-09 11:05:00,28.9,17.9,30.25,SSE,157,0.0,0.0,63,0.00,,,0.00,WUHU21623XXSP,2013-02-09 17:05:00,
2013-02-09 11:10:00,29.1,18.1,30.24,South,180,0.0,0.0,63,0.00,,,0.00,WUHU21623XXSP,2013-02-09 17:10:00,
2013-02-09 11:15:00,29.3,18.2,30.24,SE,135,0.0,0.0,63,0.00,,,0.00,WUHU21623XXSP,2013-02-09 17:15:00,
2013-02-09 11:20:00,29.3,18.2,30.23,SSW,202,0.0,0.0,63,0.00,,,0.00,WUHU21623XXSP,2013-02-09 17:20:00,
2013-02-09 11:25:00,29.7,18.2,30.24,SSE,157,0.0,0.0,62,0.00,,,0.00,WUHU21623XXSP,2013-02-09 17:25:00,
2013-02-09 11:30:00,29.7,18.2,30.23,SSE,157,0.0,0.0,62,0.00,,,0.00,WUHU21623XXSP,2013-02-09 17:30:00,
2013-02-09 11:35:00,29.8,18.4,30.22,SSE,157,0.0,0.0,62,0.00,,,0.00,WUHU21623XXSP,2013-02-09 17:35:00,
2013-02-09 11:40:00,30.4,18.9,30.22,SE,135,0.0,0.0,62,0.00,,,0.00,WUHU21623XXSP,2013-02-09 17:40:00,
2013-02-09 11:45:00,30.4,18.5,30.21,SE,135,0.0,0.0,61,0.00,,,0.00,WUHU21623XXSP,2013-02-09 17:45:00,
2013-02-09 11:50:00,30.4,18.5,30.21,South,180,0.0,0.0,61,0.00,,,0.00,WUHU21623XXSP,2013-02-09 17:50:00,
2013-02-09 11:55:00,30.4,18.1,30.20,SE,135,0.0,0.0,60,0.00,,,0.00,WUHU21623XXSP,2013-02-09 17:55:00,
2013-02-09 12:00:00,30.2,18.0,30.19,SE,135,0.0,0.0,60,0.00,,,0.00,WUHU21623XXSP,2013-02-09 18:00:00,
2013-02-09 12:05:00,30.4,18.1,30.19,SSE,157,0.0,0.0,60,0.00,,,0.00,WUHU21623XXSP,2013-02-09 18:05:00,
2013-02-09 12:10:00,30.9,18.7,30.19,SSE,157,0.0,0.0,60,0.00,,,0.00,WUHU21623XXSP,2013-02-09 18:10:00,
2013-02-09 12:15:00,31.1,18.9,30.19,SSE,157,4.3,5.4,60,0.00,,,0.00,WUHU21623XXSP,2013-02-09 18:15:00,
2013-02-09 12:20:00,31.5,19.2,30.19,SE,135,1.8,10.1,60,0.00,,,0.00,WUHU21623XXSP,2013-02-09 18:20:00,
2013-02-09 12:25:00,31.5,19.2,30.18,South,180,2.5,10.1,60,0.00,,,0.00,WUHU21623XXSP,2013-02-09 18:25:00,
2013-02-09 12:30:00,31.5,19.2,30.18,SE,135,3.4,7.2,60,0.00,,,0.00,WUHU21623XXSP,2013-02-09 18:30:00,
2013-02-09 12:35:00,31.5,19.2,30.18,SSE,157,3.1,7.2,60,0.00,,,0.00,WUHU21623XXSP,2013-02-09 18:35:00,
2013-02-09 12:40:00,31.3,18.6,30.18,SE,135,4.9,11.6,59,0.00,,,0.00,WUHU21623XXSP,2013-02-09 18:40:00,
2013-02-09 12:45:00,31.3,18.6,30.18,SSW,202,3.1,11.6,59,0.00,,,0.00,WUHU21623XXSP,2013-02-09 18:45:00,
2013-02-09 12:50:00,31.3,18.6,30.19,South,180,3.4,10.7,59,0.00,,,0.00,WUHU21623XXSP,2013-02-09 18:50:00,
2013-02-09 12:55:00,31.5,19.2,30.19,SE,135,0.0,6.7,60,0.00,,,0.00,WUHU21623XXSP,2013-02-09 18:55:00,
2013-02-09 13:00:00,31.3,19.0,30.19,SE,135,0.9,6.9,60,0.00,,,0.00,WUHU21623XXSP,2013-02-09 19:00:00,
2013-02-09 13:05:00,31.5,19.2,30.19,SSE,157,2.7,6.9,60,0.00,,,0.00,WUHU21623XXSP,2013-02-09 19:05:00,
2013-02-09 13:10:00,31.3,18.6,30.18,SSW,202,6.0,12.5,59,0.00,,,0.00,WUHU21623XXSP,2013-02-09 19:10:00,
2013-02-09 13:15:00,31.1,18.4,30.19,SSE,157,2.5,12.5,59,0.00,,,0.00,WUHU21623XXSP,2013-02-09 19:15:00,
2013-02-09 13:20:00,31.3,18.6,30.18,South,180,1.8,8.1,59,0.00,,,0.00,WUHU21623XXSP,2013-02-09 19:20:00,
2013-02-09 13:25:00,31.3,18.6,30.18,SE,135,1.6,6.7,59,0.00,,,0.00,WUHU21623XXSP,2013-02-09 19:25:00,
2013-02-09 13:30:00,31.3,18.6,30.18,ESE,112,0.2,6.7,59,0.00,,,0.00,WUHU21623XXSP,2013-02-09 19:30:00,
2013-02-09 13:35:00,31.5,19.2,30.18,South,180,2.2,6.0,60,0.00,,,0.00,WUHU21623XXSP,2013-02-09 19:35:00,
2013-02-09 13:40:00,31.8,19.6,30.18,SSE,157,0.4,4.5,60,0.00,,,0.00,WUHU21623XXSP,2013-02-09 19:40:00,
2013-02-09 13:45:00,31.6,19.4,30.17,SSW,202,2.2,4.5,60,0.00,,,0.00,WUHU21623XXSP,2013-02-09 19:45:00,
2013-02-09 13:50:00,31.6,19.4,30.17,South,180,0.9,6.0,60,0.00,,,0.00,WUHU21623XXSP,2013-02-09 19:50:00,
2013-02-09 13:55:00,31.6,19.4,30.17,SSW,202,3.8,6.0,60,0.00,,,0.00,WUHU21623XXSP,2013-02-09 19:55:00,
2013-02-09 14:00:00,31.6,19.4,30.17,South,180,2.5,6.0,60,0.00,,,0.00,WUHU21623XXSP,2013-02-09 20:00:00,
2013-02-09 14:05:00,31.5,19.2,30.17,South,180,2.5,9.4,60,0.00,,,0.00,WUHU21623XXSP,2013-02-09 20:05:00,
2013-02-09 14:10:00,31.6,19.4,30.17,SE,135,2.5,9.4,60,0.00,,,0.00,WUHU21623XXSP,2013-02-09 20:10:00,
2013-02-09 14:15:00,31.6,19.4,30.17,SSE,157,0.0,7.8,60,0.00,,,0.00,WUHU21623XXSP,2013-02-09 20:15:00,
2013-02-09 14:20:00,31.8,19.6,30.16,South,180,3.6,4.9,60,0.00,,,0.00,WUHU21623XXSP,2013-02-09 20:20:00,
2013-02-09 14:25:00,32.0,19.8,30.17,South,180,2.9,5.6,60,0.00,,,0.00,WUHU21623XXSP,2013-02-09 20:25:00,
2013-02-09 14:30:00,32.2,19.9,30.16,SSE,157,4.9,6.5,60,0.00,,,0.00,WUHU21623XXSP,2013-02-09 20:30:00,
2013-02-09 14:35:00,31.8,19.6,30.16,South,180,0.9,6.5,60,0.00,,,0.00,WUHU21623XXSP,2013-02-09 20:35:00,
2013-02-09 14:40:00,31.6,19.8,30.16,SE,135,0.0,4.9,61,0.00,,,0.00,WUHU21623XXSP,2013-02-09 20:40:00,
2013-02-09 14:45:00,31.8,19.9,30.16,SSW,202,2.0,5.4,61,0.00,,,0.00,WUHU21623XXSP,2013-02-09 20:45:00,
2013-02-09 14:50:00,31.8,19.9,30.15,South,180,0.9,6.0,61,0.00,,,0.00,WUHU21623XXSP,2013-02-09 20:50:00,
2013-02-09 14:55:00,31.6,19.4,30.15,SSW,202,3.6,6.0,60,0.00,,,0.00,WUHU21623XXSP,2013-02-09 20:55:00,
2013-02-09 15:00:00,32.0,20.1,30.15,SSE,157,0.2,7.8,61,0.00,,,0.00,WUHU21623XXSP,2013-02-09 21:00:00,
2013-02-09 15:05:00,32.2,20.3,30.15,South,180,1.6,7.8,61,0.00,,,0.00,WUHU21623XXSP,2013-02-09 21:05:00,
2013-02-09 15:10:00,32.4,20.4,30.15,SSE,157,0.0,7.2,61,0.00,,,0.00,WUHU21623XXSP,2013-02-09 21:10:00,
2013-02-09 15:15:00,32.4,20.4,30.14,SSW,202,0.0,4.5,61,0.00,,,0.00,WUHU21623XXSP,2013-02-09 21:15:00,
2013-02-09 15:20:00,32.4,20.4,30.14,SSW,202,4.0,5.1,61,0.00,,,0.00,WUHU21623XXSP,2013-02-09 21:20:00,
2013-02-09 15:25:00,32.2,20.3,30.14,SSE,157,2.2,5.1,61,0.00,,,0.00,WUHU21623XXSP,2013-02-09 21:25:00,
2013-02-09 15:30:00,32.2,20.3,30.14,SE,135,2.0,4.0,61,0.00,,,0.00,WUHU21623XXSP,2013-02-09 21:30:00,
2013-02-09 15:35:00,32.2,20.3,30.14,SE,135,0.0,3.8,61,0.00,,,0.00,WUHU21623XXSP,2013-02-09 21:35:00,
2013-02-09 15:40:00,32.2,20.3,30.13,SSE,157,1.1,7.4,61,0.00,,,0.00,WUHU21623XXSP,2013-02-09 21:40:00,
2013-02-09 15:45:00,32.2,20.6,30.12,South,180,3.8,7.4,62,0.00,,,0.00,WUHU21623XXSP,2013-02-09 21:45:00,
2013-02-09 15:50:00,32.2,20.6,30.12,SSE,157,0.7,4.9,62,0.00,,,0.00,WUHU21623XXSP,2013-02-09 21:50:00,
2013-02-09 15:55:00,32.2,20.6,30.12,SSE,157,1.6,3.8,62,0.00,,,0.00,WUHU21623XXSP,2013-02-09 21:55:00,
2013-02-09 16:00:00,32.2,20.6,30.12,SSE,157,0.4,3.8,62,0.00,,,0.00,WUHU21623XXSP,2013-02-09 22:00:00,
2013-02-09 16:05:00,32.0,20.5,30.12,SSE,157,1.3,5.8,62,0.00,,,0.00,WUHU21623XXSP,2013-02-09 22:05:00,
2013-02-09 16:10:00,32.0,20.5,30.12,SE,135,0.9,5.8,62,0.00,,,0.00,WUHU21623XXSP,2013-02-09 22:10:00,
2013-02-09 16:15:00,31.6,20.5,30.11,SE,135,0.4,4.3,63,0.00,,,0.00,WUHU21623XXSP,2013-02-09 22:15:00,
2013-02-09 16:20:00,31.6,20.5,30.11,SE,135,2.0,6.0,63,0.00,,,0.00,WUHU21623XXSP,2013-02-09 22:20:00,
2013-02-09 16:25:00,31.5,20.3,30.11,SE,135,0.9,6.0,63,0.00,,,0.00,WUHU21623XXSP,2013-02-09 22:25:00,
2013-02-09 16:30:00,31.5,20.3,30.11,SE,135,0.9,5.4,63,0.00,,,0.00,WUHU21623XXSP,2013-02-09 22:30:00,
2013-02-09 16:35:00,31.3,20.5,30.10,ESE,112,2.5,6.0,64,0.00,,,0.00,WUHU21623XXSP,2013-02-09 22:35:00,
2013-02-09 16:40:00,31.5,20.7,30.10,SSE,157,8.5,8.5,64,0.00,,,0.00,WUHU21623XXSP,2013-02-09 22:40:00,
2013-02-09 16:45:00,31.3,20.5,30.10,SE,135,0.9,8.5,64,0.00,,,0.00,WUHU21623XXSP,2013-02-09 22:45:00,
2013-02-09 16:50:00,31.1,20.7,30.10,SSE,157,2.0,4.0,65,0.00,,,0.00,WUHU21623XXSP,2013-02-09 22:50:00,
2013-02-09 16:55:00,31.1,20.7,30.09,SE,135,2.7,5.4,65,0.00,,,0.00,WUHU21623XXSP,2013-02-09 22:55:00,
2013-02-09 17:00:00,31.1,20.7,30.09,SE,135,0.7,5.4,65,0.00,,,0.00,WUHU21623XXSP,2013-02-09 23:00:00,
2013-02-09 17:05:00,30.9,20.5,30.10,SE,135,0.4,3.4,65,0.00,,,0.00,WUHU21623XXSP,2013-02-09 23:05:00,
2013-02-09 17:10:00,30.7,20.3,30.10,SSE,157,0.0,4.7,65,0.00,,,0.00,WUHU21623XXSP,2013-02-09 23:10:00,
2013-02-09 17:15:00,30.6,20.1,30.09,SE,135,1.8,6.3,65,0.00,,,0.00,WUHU21623XXSP,2013-02-09 23:15:00,
2013-02-09 17:20:00,30.4,19.9,30.09,SE,135,0.4,6.3,65,0.00,,,0.00,WUHU21623XXSP,2013-02-09 23:20:00,
2013-02-09 17:25:00,30.4,19.9,30.09,ESE,112,1.3,5.6,65,0.00,,,0.00,WUHU21623XXSP,2013-02-09 23:25:00,
2013-02-09 17:30:00,30.4,19.9,30.09,SE,135,2.2,7.6,65,0.00,,,0.00,WUHU21623XXSP,2013-02-09 23:30:00,
2013-02-09 17:35:00,30.4,19.9,30.09,SE,135,0.7,7.6,65,0.00,,,0.00,WUHU21623XXSP,2013-02-09 23:35:00,
2013-02-09 17:40:00,30.0,19.6,30.09,SE,135,1.1,5.6,65,0.00,,,0.00,WUHU21623XXSP,2013-02-09 23:40:00,
2013-02-09 17:45:00,29.8,19.4,30.09,SE,135,1.1,4.3,65,0.00,,,0.00,WUHU21623XXSP,2013-02-09 23:45:00,
2013-02-09 17:50:00,29.7,19.3,30.09,ESE,112,1.1,4.3,65,0.00,,,0.00,WUHU21623XXSP,2013-02-09 23:50:00,
2013-02-09 17:55:00,29.3,19.3,30.08,ESE,112,0.7,4.5,66,0.00,,,0.00,WUHU21623XXSP,2013-02-09 23:55:00,
2013-02-09 18:00:00,29.3,19.3,30.08,ESE,112,0.0,5.1,66,0.00,,,0.00,WUHU21623XXSP,2013-02-10 00:00:00,
2013-02-09 18:05:00,28.8,18.8,30.08,SE,135,2.5,7.8,66,0.00,,,0.00,WUHU21623XXSP,2013-02-10 00:05:00,
2013-02-09 18:10:00,28.8,18.8,30.08,SE,135,0.9,7.8,66,0.00,,,0.00,WUHU21623XXSP,2013-02-10 00:10:00,
2013-02-09 18:15:00,28.6,18.7,30.08,ESE,112,1.6,7.2,66,0.00,,,0.00,WUHU21623XXSP,2013-02-10 00:15:00,
2013-02-09 18:20:00,28.2,18.3,30.08,SE,135,1.1,6.3,66,0.00,,,0.00,WUHU21623XXSP,2013-02-10 00:20:00,
2013-02-09 18:25:00,28.2,18.3,30.08,ESE,112,2.0,6.3,66,0.00,,,0.00,WUHU21623XXSP,2013-02-10 00:25:00,
2013-02-09 18:30:00,28.0,18.5,30.07,ESE,112,0.0,3.6,67,0.00,,,0.00,WUHU21623XXSP,2013-02-10 00:30:00,
2013-02-09 18:35:00,28.0,18.5,30.07,ESE,112,0.0,2.5,67,0.00,,,0.00,WUHU21623XXSP,2013-02-10 00:35:00,
2013-02-09 18:40:00,27.9,18.3,30.07,SE,135,3.8,7.8,67,0.00,,,0.00,WUHU21623XXSP,2013-02-10 00:40:00,
2013-02-09 18:45:00,27.9,18.3,30.07,SE,135,0.0,7.8,67,0.00,,,0.00,WUHU21623XXSP,2013-02-10 00:45:00,
2013-02-09 18:50:00,27.9,18.3,30.07,ESE,112,0.9,5.4,67,0.00,,,0.00,WUHU21623XXSP,2013-02-10 00:50:00,
2013-02-09 18:55:00,27.9,18.7,30.07,SE,135,1.3,4.7,68,0.00,,,0.00,WUHU21623XXSP,2013-02-10 00:55:00,
2013-02-09 19:00:00,28.0,19.2,30.07,SSE,157,1.3,6.5,69,0.00,,,0.00,WUHU21623XXSP,2013-02-10 01:00:00,
2013-02-09 19:05:00,28.6,20.1,30.07,SE,135,2.0,6.5,70,0.00,,,0.00,WUHU21623XXSP,2013-02-10 01:05:00,
2013-02-09 19:10:00,28.9,20.7,30.07,SE,135,1.8,6.9,71,0.00,,,0.00,WUHU21623XXSP,2013-02-10 01:10:00,
2013-02-09 19:15:00,29.3,21.1,30.07,SSE,157,2.9,6.9,71,0.00,,,0.00,WUHU21623XXSP,2013-02-10 01:15:00,
2013-02-09 19:20:00,29.5,21.5,30.07,SE,135,4.0,7.2,72,0.00,,,0.00,WUHU21623XXSP,2013-02-10 01:20:00,
2013-02-09 19:25:00,29.7,21.4,30.07,ESE,112,4.7,7.8,71,0.00,,,0.00,WUHU21623XXSP,2013-02-10 01:25:00,
2013-02-09 19:30:00,29.5,21.2,30.07,ESE,112,5.8,10.5,71,0.00,,,0.00,WUHU21623XXSP,2013-02-10 01:30:00,
2013-02-09 19:35:00,29.5,21.2,30.07,SSE,157,2.5,10.5,71,0.00,,,0.00,WUHU21623XXSP,2013-02-10 01:35:00,
2013-02-09 19:40:00,29.1,20.9,30.07,SE,135,2.2,6.0,71,0.00,,,0.00,WUHU21623XXSP,2013-02-10 01:40:00,
2013-02-09 19:45:00,29.1,20.9,30.07,SE,135,1.8,6.3,71,0.00,,,0.00,WUHU21623XXSP,2013-02-10 01:45:00,
2013-02-09 19:50:00,28.8,20.6,30.06,SE,135,0.7,6.5,71,0.00,,,0.00,WUHU21623XXSP,2013-02-10 01:50:00,
2013-02-09 19:55:00,28.6,20.1,30.06,SE,135,2.5,6.5,70,0.00,,,0.00,WUHU21623XXSP,2013-02-10 01:55:00,
2013-02-09 20:00:00,28.0,19.6,30.06,SE,135,2.9,6.0,70,0.00,,,0.00,WUHU21623XXSP,2013-02-10 02:00:00,
2013-02-09 20:05:00,28.0,19.6,30.06,SE,135,0.2,6.0,70,0.00,,,0.00,WUHU21623XXSP,2013-02-10 02:05:00,
2013-02-09 20:10:00,27.9,19.4,30.06,SE,135,0.9,5.4,70,0.00,,,0.00,WUHU21623XXSP,2013-02-10 02:10:00,
2013-02-09 20:15:00,27.7,19.2,30.07,SE,135,0.7,5.4,70,0.00,,,0.00,WUHU21623XXSP,2013-02-10 02:15:00,
2013-02-09 20:20:00,27.7,19.5,30.06,SE,135,1.1,4.7,71,0.00,,,0.00,WUHU21623XXSP,2013-02-10 02:20:00,
2013-02-09 20:25:00,27.7,19.5,30.06,SE,135,0.4,4.7,71,0.00,,,0.00,WUHU21623XXSP,2013-02-10 02:25:00,
2013-02-09 20:30:00,27.7,19.5,30.06,SE,135,1.3,11.0,71,0.00,,,0.00,WUHU21623XXSP,2013-02-10 02:30:00,
2013-02-09 20:35:00,27.5,19.3,30.06,SE,135,0.4,11.0,71,0.00,,,0.00,WUHU21623XXSP,2013-02-10 02:35:00,
2013-02-09 20:40:00,27.5,19.3,30.06,ESE,112,11.2,11.2,71,0.00,,,0.00,WUHU21623XXSP,2013-02-10 02:40:00,
2013-02-09 20:45:00,27.3,19.2,30.06,ESE,112,0.0,11.2,71,0.00,,,0.00,WUHU21623XXSP,2013-02-10 02:45:00,
2013-02-09 20:50:00,27.3,19.2,30.06,SE,135,0.9,7.6,71,0.00,,,0.00,WUHU21623XXSP,2013-02-10 02:50:00,
2013-02-09 20:55:00,27.3,19.2,30.05,ESE,112,0.0,7.6,71,0.00,,,0.00,WUHU21623XXSP,2013-02-10 02:55:00,
2013-02-09 21:00:00,27.3,19.2,30.05,ESE,112,4.0,7.4,71,0.00,,,0.00,WUHU21623XXSP,2013-02-10 03:00:00,
2013-02-09 21:05:00,27.0,18.8,30.05,ESE,112,0.7,4.0,71,0.00,,,0.00,WUHU21623XXSP,2013-02-10 03:05:00,
2013-02-09 21:10:00,27.0,18.8,30.04,ESE,112,4.9,8.5,71,0.00,,,0.00,WUHU21623XXSP,2013-02-10 03:10:00,
2013-02-09 21:15:00,27.1,19.0,30.04,ESE,112,0.2,8.5,71,0.00,,,0.00,WUHU21623XXSP,2013-02-10 03:15:00,
2013-02-09 21:20:00,27.1,19.0,30.04,SE,135,3.6,6.9,71,0.00,,,0.00,WUHU21623XXSP,2013-02-10 03:20:00,
2013-02-09 21:25:00,27.1,19.0,30.04,ESE,112,0.0,9.2,71,0.00,,,0.00,WUHU21623XXSP,2013-02-10 03:25:00,
2013-02-09 21:30:00,27.1,19.0,30.04,ESE,112,0.7,9.2,71,0.00,,,0.00,WUHU21623XXSP,2013-02-10 03:30:00,
2013-02-09 21:35:00,27.0,18.8,30.04,ESE,112,0.7,9.8,71,0.00,,,0.00,WUHU21623XXSP,2013-02-10 03:35:00,
2013-02-09 21:40:00,27.0,19.1,30.04,ESE,112,0.0,9.8,72,0.00,,,0.00,WUHU21623XXSP,2013-02-10 03:40:00,
2013-02-09 21:46:00,27.0,19.1,30.04,ESE,112,0.0,8.7,72,0.00,,,0.00,WUHU21623XXSP,2013-02-10 03:46:00,
2013-02-09 21:50:00,27.0,19.1,30.03,ESE,112,1.1,8.7,72,0.00,,,0.00,WUHU21623XXSP,2013-02-10 03:50:00,
2013-02-09 21:55:00,27.0,19.1,30.03,ESE,112,2.5,9.2,72,0.00,,,0.00,WUHU21623XXSP,2013-02-10 03:55:00,
2013-02-09 22:00:00,27.1,19.3,30.03,ESE,112,2.5,9.2,72,0.00,,,0.00,WUHU21623XXSP,2013-02-10 04:00:00,
2013-02-09 22:05:00,27.1,19.3,30.02,ESE,112,0.0,8.9,72,0.00,,,0.00,WUHU21623XXSP,2013-02-10 04:05:00,
2013-02-09 22:11:00,27.1,19.3,30.02,ESE,112,2.2,9.4,72,0.00,,,0.00,WUHU21623XXSP,2013-02-10 04:11:00,
2013-02-09 22:16:00,27.1,19.3,30.02,ESE,112,0.9,9.4,72,0.00,,,0.00,WUHU21623XXSP,2013-02-10 04:16:00,
2013-02-09 22:21:00,27.1,19.3,30.02,SE,135,0.9,5.8,72,0.00,,,0.00,WUHU21623XXSP,2013-02-10 04:21:00,
2013-02-09 22:26:00,27.1,19.3,30.02,ESE,112,0.7,5.8,72,0.00,,,0.00,WUHU21623XXSP,2013-02-10 04:26:00,
2013-02-09 22:31:00,27.1,19.3,30.02,East,90,2.0,10.1,72,0.00,,,0.00,WUHU21623XXSP,2013-02-10 04:31:00,
2013-02-09 22:36:00,27.1,19.3,30.02,ESE,112,1.1,10.5,72,0.00,,,0.00,WUHU21623XXSP,2013-02-10 04:36:00,
2013-02-09 22:41:00,27.0,19.4,30.01,SE,135,0.7,10.5,73,0.00,,,0.00,WUHU21623XXSP,2013-02-10 04:41:00,
2013-02-09 22:46:00,27.0,19.4,30.01,ESE,112,2.7,5.6,73,0.00,,,0.00,WUHU21623XXSP,2013-02-10 04:46:00,
2013-02-09 22:51:00,27.0,19.4,30.01,East,90,1.3,5.8,73,0.00,,,0.00,WUHU21623XXSP,2013-02-10 04:51:00,
2013-02-09 22:56:00,27.0,19.4,30.01,ESE,112,0.7,7.6,73,0.00,,,0.00,WUHU21623XXSP,2013-02-10 04:56:00,
2013-02-09 23:00:00,26.8,19.2,30.00,ESE,112,2.0,7.6,73,0.00,,,0.00,WUHU21623XXSP,2013-02-10 05:00:00,
2013-02-09 23:05:00,26.8,19.2,30.00,ESE,112,0.0,5.1,73,0.00,,,0.00,WUHU21623XXSP,2013-02-10 05:05:00,
2013-02-09 23:10:00,26.8,19.2,30.01,ESE,112,2.9,5.8,73,0.00,,,0.00,WUHU21623XXSP,2013-02-10 05:10:00,
2013-02-09 23:15:00,26.8,19.2,30.00,SE,135,1.1,5.8,73,0.00,,,0.00,WUHU21623XXSP,2013-02-10 05:15:00,
2013-02-09 23:20:00,26.8,19.2,30.00,ESE,112,3.4,5.8,73,0.00,,,0.00,WUHU21623XXSP,2013-02-10 05:20:00,
2013-02-09 23:25:00,26.8,19.2,30.00,ESE,112,0.7,8.9,73,0.00,,,0.00,WUHU21623XXSP,2013-02-10 05:25:00,
2013-02-09 23:30:00,26.8,19.2,30.00,SSE,157,0.7,8.9,73,0.00,,,0.00,WUHU21623XXSP,2013-02-10 05:30:00,
2013-02-09 23:35:00,26.8,19.2,30.00,ESE,112,0.4,4.3,73,0.00,,,0.00,WUHU21623XXSP,2013-02-10 05:35:00,
2013-02-09 23:40:00,27.0,19.7,30.00,SE,135,2.7,5.4,74,0.00,,,0.00,WUHU21623XXSP,2013-02-10 05:40:00,
2013-02-09 23:45:00,27.1,19.9,30.00,ESE,112,3.1,6.9,74,0.00,,,0.00,WUHU21623XXSP,2013-02-10 05:45:00,
2013-02-09 23:50:00,27.1,19.9,30.00,SE,135,4.7,6.9,74,0.00,,,0.00,WUHU21623XXSP,2013-02-10 05:50:00,
2013-02-09 23:55:00,27.1,19.9,30.00,ESE,112,0.7,5.4,74,0.00,,,0.00,WUHU21623XXSP,2013-02-10 05:55:00,